QPF
0.00 0.00 0.00 0.00 0.00 0.00 0.00 0.00 0.00 0.00 0.00 0.00 0.00 0.00 0.01 0.01 0.01 0.00 0.00 0.00 0.00 0.00 0.00 0.00 0.00 0.00 0.00 0.00 0.00 0.00 0.00 0.00 0.00 0.00 0.01 0.00 0.01 0.01 0.01 0.01 0.01 0.01 0.01 0.01
0.00 0.00 0.00 0.00 0.00 0.00 0.00 0.00 0.00 0.00 0.00 0.00 0.00 0.01 0.01 0.01 0.00 0.00 0.00 0.00 0.00 0.00 0.01 0.00 0.01 0.00 0.00 0.00 0.00 0.00 0.00 0.01 0.00 0.00 0.00 0.00 0.01 0.01 0.01 0.01 0.01 0.02 0.02 0.02
0.00 0.00 0.00 0.00 0.00 0.00 0.00 0.00 0.00 0.00 0.00 0.00 0.00 0.00 0.00 0.01 0.01 0.01 0.00 0.00 0.00 0.00 0.01 0.01 0.01 0.01 0.01 0.00 0.00 0.00 0.00 0.01 0.01 0.01 0.01 0.01 0.01 0.02 0.02 0.03 0.03 0.03 0.03 0.03
0.00 0.00 0.00 0.00 0.00 0.00 0.00 0.00 0.00 0.00 0.00 0.00 0.00 0.01 0.01 0.01 0.01 0.01 0.00 0.00 0.00 0.00 0.01 0.01 0.01 0.01 0.01 0.00 0.00 0.01 0.02 0.05 0.04 0.02 0.02 0.02 0.02 0.02 0.02 0.03 0.03 0.03 0.02 0.03
0.00 0.00 0.00 0.00 0.00 0.00 0.00 0.00 0.00 0.00 0.00 0.00 0.00 0.01 0.05 0.03 0.02 0.01 0.00 0.00 0.00 0.00 0.00 0.01 0.01 0.01 0.01 0.01 0.00 0.01 0.04 0.08 0.08 0.05 0.03 0.03 0.03 0.02 0.02 0.02 0.02 0.03 0.03 0.04
0.01 0.00 0.00 0.00 0.00 0.00 0.00 0.00 0.00 0.00 0.00 0.00 0.00 0.00 0.03 0.04 0.06 0.03 0.01 0.00 0.00 0.00 0.00 0.00 0.01 0.01 0.01 0.01 0.01 0.01 0.01 0.02 0.03 0.05 0.06 0.04 0.03 0.03 0.03 0.03 0.03 0.04 0.04 0.04
0.00 0.00 0.00 0.00 0.00 0.00 0.01 0.01 0.00 0.00 0.00 0.00 0.00 0.01 0.01 0.02 0.04 0.02 0.00 0.00 0.00 0.00 0.00 0.00 0.01 0.01 0.01 0.01 0.01 0.01 0.02 0.02 0.02 0.03 0.05 0.09 0.09 0.06 0.04 0.04 0.04 0.03 0.03 0.03
0.01 0.01 0.01 0.01 0.00 0.01 0.01 0.00 0.00 0.00 0.00 0.00 0.00 0.00 0.00 0.00 0.01 0.00 0.00 0.00 0.00 0.01 0.01 0.01 0.01 0.00 0.00 0.00 0.01 0.02 0.03 0.04 0.03 0.02 0.02 0.05 0.10 0.11 0.06 0.05 0.05 0.04 0.03 0.03
0.02 0.02 0.02 0.01 0.01 0.00 0.01 0.01 0.00 0.00 0.00 0.00 0.02 0.02 0.00 0.00 0.00 0.00 0.01 0.01 0.01 0.01 0.01 0.01 0.01 0.01 0.01 0.01 0.02 0.03 0.04 0.04 0.04 0.03 0.03 0.03 0.03 0.05 0.05 0.06 0.05 0.04 0.03 0.03
0.01 0.01 0.00 0.00 0.01 0.01 0.00 0.00 0.00 0.00 0.00 0.00 0.00 0.01 0.00 0.00 0.00 0.00 0.00 0.01 0.01 0.02 0.01 0.01 0.02 0.03 0.04 0.02 0.03 0.04 0.05 0.04 0.04 0.03 0.03 0.03 0.03 0.03 0.04 0.06 0.07 0.06 0.03 0.03
0.03 0.03 0.02 0.01 0.01 0.02 0.01 0.00 0.00 0.00 0.00 0.00 0.00 0.00 0.00 0.00 0.01 0.01 0.01 0.01 0.02 0.02 0.02 0.02 0.02 0.03 0.04 0.04 0.05 0.04 0.06 0.06 0.04 0.04 0.04 0.04 0.04 0.05 0.05 0.04 0.04 0.04 0.02 0.01
0.06 0.06 0.04 0.02 0.00 0.00 0.01 0.00 0.00 0.00 0.00 0.00 0.00 0.00 0.01 0.01 0.02 0.01 0.01 0.03 0.03 0.03 0.03 0.03 0.03 0.04 0.04 0.05 0.06 0.05 0.05 0.08 0.09 0.08 0.06 0.04 0.04 0.05 0.07 0.07 0.06 0.04 0.02 0.01
0.04 0.05 0.03 0.02 0.01 0.01 0.01 0.01 0.01 0.00 0.00 0.00 0.00 0.01 0.02 0.02 0.03 0.02 0.02 0.04 0.05 0.06 0.06 0.05 0.04 0.06 0.08 0.09 0.08 0.06 0.04 0.05 0.08 0.10 0.11 0.08 0.05 0.04 0.05 0.06 0.05 0.04 0.03 0.02
0.04 0.04 0.03 0.03 0.03 0.03 0.02 0.02 0.01 0.01 0.01 0.01 0.01 0.01 0.02 0.04 0.03 0.05 0.05 0.03 0.03 0.04 0.05 0.05 0.05 0.05 0.06 0.08 0.07 0.05 0.04 0.05 0.06 0.07 0.10 0.14 0.13 0.10 0.07 0.05 0.04 0.03 0.02 0.02
0.06 0.04 0.03 0.02 0.02 0.03 0.03 0.03 0.02 0.02 0.02 0.03 0.03 0.02 0.02 0.04 0.03 0.04 0.06 0.05 0.04 0.04 0.05 0.05 0.05 0.05 0.06 0.06 0.06 0.05 0.05 0.05 0.07 0.07 0.07 0.08 0.12 0.14 0.14 0.11 0.08 0.05 0.03 0.04
0.06 0.04 0.02 0.02 0.02 0.02 0.02 0.02 0.02 0.02 0.02 0.03 0.03 0.03 0.03 0.03 0.03 0.03 0.04 0.06 0.07 0.06 0.05 0.05 0.06 0.06 0.06 0.06 0.06 0.05 0.05 0.07 0.07 0.06 0.06 0.05 0.06 0.06 0.07 0.08 0.09 0.10 0.09 0.07
0.05 0.03 0.02 0.02 0.01 0.01 0.01 0.01 0.02 0.01 0.02 0.03 0.04 0.04 0.04 0.04 0.04 0.03 0.03 0.06 0.09 0.09 0.07 0.07 0.08 0.06 0.06 0.06 0.06 0.05 0.05 0.05 0.06 0.05 0.04 0.04 0.04 0.05 0.07 0.08 0.09 0.09 0.09 0.08
0.02 0.02 0.02 0.02 0.01 0.01 0.01 0.02 0.02 0.01 0.02 0.05 0.06 0.06 0.06 0.07 0.05 0.04 0.05 0.09 0.12 0.12 0.10 0.09 0.08 0.07 0.06 0.06 0.05 0.05 0.05 0.05 0.04 0.04 0.05 0.05 0.06 0.07 0.08 0.07 0.07 0.08 0.07 0.06
0.02 0.01 0.02 0.02 0.02 0.03 0.02 0.01 0.02 0.02 0.04 0.11 0.12 0.09 0.08 0.08 0.07 0.06 0.07 0.09 0.11 0.12 0.09 0.07 0.07 0.07 0.06 0.05 0.05 0.05 0.05 0.06 0.05 0.05 0.05 0.05 0.05 0.04 0.04 0.04 0.05 0.06 0.04 0.03
0.02 0.02 0.03 0.03 0.03 0.03 0.03 0.02 0.03 0.02 0.04 0.08 0.14 0.13 0.10 0.09 0.07 0.07 0.07 0.08 0.09 0.08 0.06 0.05 0.05 0.07 0.08 0.07 0.07 0.06 0.06 0.06 0.07 0.08 0.08 0.06 0.05 0.04 0.04 0.05 0.05 0.05 0.03 0.02
0.04 0.03 0.03 0.04 0.04 0.04 0.03 0.03 0.03 0.03 0.04 0.06 0.12 0.14 0.10 0.10 0.09 0.07 0.08 0.08 0.08 0.08 0.06 0.04 0.05 0.06 0.07 0.07 0.07 0.08 0.07 0.07 0.07 0.09 0.10 0.09 0.08 0.06 0.05 0.05 0.04 0.03 0.03 0.02
0.08 0.06 0.05 0.04 0.04 0.04 0.04 0.04 0.04 0.05 0.06 0.06 0.07 0.09 0.07 0.08 0.09 0.10 0.08 0.08 0.07 0.07 0.05 0.03 0.05 0.05 0.05 0.06 0.06 0.06 0.06 0.07 0.07 0.07 0.07 0.05 0.04 0.04 0.03 0.03 0.02 0.02 0.02 0.01
0.13 0.15 0.09 0.07 0.07 0.06 0.07 0.06 0.05 0.05 0.05 0.06 0.07 0.10 0.09 0.07 0.07 0.10 0.10 0.08 0.08 0.07 0.06 0.05 0.05 0.04 0.04 0.04 0.05 0.05 0.05 0.06 0.07 0.06 0.05 0.03 0.02 0.02 0.02 0.02 0.02 0.02 0.01 0.01
0.17 0.19 0.13 0.10 0.11 0.10 0.09 0.06 0.05 0.04 0.04 0.07 0.12 0.13 0.12 0.09 0.08 0.08 0.09 0.08 0.06 0.05 0.05 0.06 0.06 0.05 0.05 0.04 0.04 0.04 0.04 0.05 0.04 0.04 0.03 0.03 0.02 0.02 0.02 0.01 0.01 0.01 0.01 0.01
0.15 0.16 0.14 0.10 0.09 0.09 0.07 0.07 0.06 0.06 0.06 0.09 0.14 0.13 0.11 0.10 0.08 0.07 0.07 0.06 0.06 0.06 0.05 0.05 0.07 0.07 0.06 0.04 0.04 0.04 0.03 0.03 0.04 0.03 0.03 0.03 0.02 0.02 0.02 0.02 0.01 0.01 0.01 0.01
0.13 0.12 0.11 0.09 0.07 0.07 0.07 0.07 0.07 0.06 0.07 0.11 0.13 0.11 0.12 0.11 0.10 0.08 0.08 0.07 0.06 0.05 0.05 0.05 0.07 0.07 0.07 0.07 0.07 0.05 0.03 0.03 0.03 0.03 0.03 0.03 0.02 0.02 0.02 0.02 0.02 0.01 0.01 0.00
0.10 0.12 0.12 0.10 0.07 0.06 0.05 0.05 0.06 0.06 0.07 0.10 0.11 0.11 0.11 0.11 0.11 0.09 0.08 0.09 0.07 0.06 0.05 0.06 0.05 0.05 0.06 0.07 0.07 0.04 0.03 0.03 0.03 0.03 0.03 0.03 0.02 0.02 0.01 0.01 0.01 0.01 0.01 0.00
MSLP
1001.42 1002.21 1002.92 1003.54 1004.06 1004.45 1004.72 1004.86 1004.85 1004.70 1004.43 1004.06 1003.62 1003.14 1002.68 1002.27 1001.94 1001.72 1001.62 1001.64 1001.78 1002.03 1002.38 1002.81 1003.31 1003.87 1004.46 1005.09 1005.73 1006.36 1006.97 1007.55 1008.08 1008.56 1008.99 1009.38 1009.73 1010.06 1010.38 1010.70 1011.02 1011.36 1011.69 1012.01
1001.67 1002.39 1002.96 1003.38 1003.66 1003.81 1003.85 1003.82 1003.72 1003.57 1003.39 1003.17 1002.93 1002.67 1002.42 1002.18 1001.97 1001.81 1001.72 1001.71 1001.81 1002.01 1002.31 1002.72 1003.22 1003.80 1004.44 1005.11 1005.78 1006.44 1007.07 1007.65 1008.18 1008.66 1009.10 1009.51 1009.89 1010.26 1010.64 1011.01 1011.39 1011.77 1012.13 1012.47
1002.06 1002.65 1003.03 1003.22 1003.24 1003.14 1002.96 1002.75 1002.55 1002.39 1002.27 1002.18 1002.12 1002.06 1002.00 1001.92 1001.84 1001.75 1001.69 1001.68 1001.75 1001.91 1002.19 1002.58 1003.09 1003.69 1004.36 1005.07 1005.79 1006.48 1007.14 1007.74 1008.28 1008.78 1009.23 1009.66 1010.08 1010.50 1010.93 1011.35 1011.77 1012.17 1012.54 1012.89
1002.51 1002.92 1003.08 1003.02 1002.78 1002.43 1002.03 1001.66 1001.37 1001.19 1001.12 1001.14 1001.24 1001.36 1001.47 1001.55 1001.58 1001.58 1001.56 1001.56 1001.61 1001.76 1002.01 1002.40 1002.91 1003.53 1004.23 1004.97 1005.72 1006.45 1007.14 1007.76 1008.33 1008.85 1009.34 1009.80 1010.26 1010.72 1011.18 1011.64 1012.08 1012.49 1012.87 1013.19
1002.90 1003.09 1003.02 1002.71 1002.24 1001.67 1001.10 1000.61 1000.25 1000.06 1000.04 1000.17 1000.40 1000.67 1000.94 1001.16 1001.31 1001.39 1001.42 1001.44 1001.49 1001.62 1001.86 1002.23 1002.74 1003.36 1004.07 1004.83 1005.60 1006.36 1007.07 1007.72 1008.32 1008.87 1009.39 1009.89 1010.39 1010.88 1011.37 1011.85 1012.30 1012.71 1013.06 1013.36
1003.07 1003.03 1002.74 1002.24 1001.58 1000.86 1000.18 999.63 999.25 999.09 999.14 999.37 999.73 1000.15 1000.55 1000.89 1001.15 1001.31 1001.39 1001.44 1001.49 1001.61 1001.83 1002.17 1002.65 1003.25 1003.95 1004.71 1005.48 1006.25 1006.97 1007.65 1008.27 1008.85 1009.41 1009.94 1010.47 1010.98 1011.49 1011.97 1012.42 1012.81 1013.14 1013.41
1002.90 1002.66 1002.20 1001.56 1000.81 1000.04 999.34 998.79 998.47 998.38 998.53 998.88 999.36 999.90 1000.42 1000.87 1001.22 1001.44 1001.57 1001.64 1001.70 1001.81 1002.00 1002.31 1002.75 1003.30 1003.96 1004.69 1005.44 1006.19 1006.91 1007.60 1008.24 1008.84 1009.42 1009.97 1010.52 1011.05 1011.56 1012.04 1012.47 1012.84 1013.14 1013.37
1002.31 1001.93 1001.38 1000.71 999.96 999.24 998.62 998.18 997.98 998.02 998.30 998.77 999.37 1000.02 1000.64 1001.18 1001.59 1001.87 1002.04 1002.13 1002.19 1002.27 1002.43 1002.69 1003.07 1003.57 1004.16 1004.83 1005.53 1006.24 1006.94 1007.61 1008.25 1008.86 1009.45 1010.02 1010.57 1011.11 1011.61 1012.08 1012.48 1012.83 1013.10 1013.31
1001.35 1000.91 1000.36 999.74 999.11 998.54 998.10 997.85 997.83 998.04 998.47 999.08 999.79 1000.52 1001.22 1001.81 1002.27 1002.59 1002.78 1002.88 1002.94 1003.00 1003.12 1003.33 1003.64 1004.06 1004.57 1005.16 1005.79 1006.44 1007.09 1007.72 1008.34 1008.94 1009.52 1010.09 1010.63 1011.16 1011.65 1012.09 1012.48 1012.80 1013.05 1013.25
1000.14 999.72 999.27 998.80 998.37 998.03 997.84 997.83 998.03 998.44 999.02 999.75 1000.55 1001.35 1002.08 1002.71 1003.20 1003.53 1003.74 1003.84 1003.89 1003.93 1004.02 1004.17 1004.41 1004.74 1005.16 1005.65 1006.19 1006.75 1007.33 1007.91 1008.48 1009.05 1009.61 1010.15 1010.68 1011.19 1011.66 1012.09 1012.45 1012.76 1013.01 1013.20
998.90 998.57 998.27 998.02 997.84 997.78 997.87 998.12 998.55 999.14 999.87 1000.68 1001.54 1002.37 1003.12 1003.74 1004.23 1004.57 1004.78 1004.89 1004.94 1004.97 1005.02 1005.12 1005.29 1005.54 1005.86 1006.24 1006.68 1007.14 1007.63 1008.13 1008.64 1009.16 1009.67 1010.18 1010.69 1011.17 1011.62 1012.03 1012.38 1012.68 1012.93 1013.14
997.86 997.66 997.54 997.53 997.62 997.83 998.19 998.68 999.30 1000.04 1000.87 1001.74 1002.61 1003.43 1004.16 1004.77 1005.24 1005.58 1005.79 1005.90 1005.96 1005.98 1006.01 1006.07 1006.18 1006.35 1006.57 1006.85 1007.17 1007.53 1007.91 1008.32 1008.75 1009.20 1009.66 1010.13 1010.60 1011.06 1011.49 1011.89 1012.24 1012.55 1012.81 1013.04
997.19 997.13 997.20 997.39 997.72 998.17 998.73 999.41 1000.17 1001.00 1001.88 1002.76 1003.60 1004.39 1005.07 1005.65 1006.10 1006.42 1006.64 1006.77 1006.84 1006.87 1006.90 1006.93 1006.99 1007.09 1007.22 1007.39 1007.60 1007.85 1008.12 1008.43 1008.78 1009.15 1009.56 1009.98 1010.41 1010.85 1011.27 1011.66 1012.03 1012.35 1012.64 1012.90
996.97 997.03 997.25 997.61 998.11 998.72 999.43 1000.21 1001.05 1001.91 1002.78 1003.62 1004.42 1005.14 1005.77 1006.31 1006.73 1007.06 1007.29 1007.45 1007.54 1007.60 1007.63 1007.65 1007.67 1007.71 1007.76 1007.83 1007.94 1008.07 1008.24 1008.46 1008.71 1009.02 1009.36 1009.74 1010.15 1010.57 1010.98 1011.39 1011.77 1012.12 1012.44 1012.74
997.17 997.32 997.64 998.11 998.71 999.40 1000.17 1000.99 1001.83 1002.67 1003.49 1004.27 1005.00 1005.66 1006.24 1006.74 1007.16 1007.49 1007.75 1007.94 1008.07 1008.16 1008.20 1008.22 1008.21 1008.20 1008.18 1008.17 1008.18 1008.22 1008.30 1008.42 1008.60 1008.85 1009.14 1009.49 1009.87 1010.28 1010.70 1011.12 1011.53 1011.91 1012.28 1012.62
997.66 997.87 998.24 998.76 999.39 1000.10 1000.87 1001.66 1002.46 1003.24 1004.00 1004.71 1005.37 1005.97 1006.51 1006.99 1007.42 1007.77 1008.07 1008.30 1008.48 1008.59 1008.66 1008.67 1008.65 1008.59 1008.52 1008.44 1008.37 1008.33 1008.34 1008.40 1008.52 1008.72 1008.98 1009.31 1009.68 1010.09 1010.52 1010.96 1011.39 1011.81 1012.21 1012.59
998.25 998.50 998.90 999.42 1000.04 1000.73 1001.46 1002.20 1002.93 1003.64 1004.32 1004.97 1005.58 1006.15 1006.67 1007.16 1007.60 1007.99 1008.33 1008.61 1008.82 1008.97 1009.05 1009.07 1009.03 1008.94 1008.82 1008.69 1008.57 1008.48 1008.44 1008.46 1008.55 1008.72 1008.97 1009.29 1009.66 1010.07 1010.51 1010.97 1011.42 1011.86 1012.29 1012.70
998.79 999.07 999.48 999.99 1000.59 1001.23 1001.91 1002.58 1003.25 1003.91 1004.54 1005.14 1005.72 1006.28 1006.81 1007.32 1007.79 1008.22 1008.60 1008.92 1009.17 1009.33 1009.43 1009.44 1009.39 1009.28 1009.14 1008.98 1008.83 1008.72 1008.66 1008.66 1008.75 1008.92 1009.16 1009.48 1009.86 1010.28 1010.73 1011.18 1011.64 1012.09 1012.53 1012.96
999.17 999.49 999.91 1000.42 1000.99 1001.60 1002.23 1002.86 1003.48 1004.10 1004.70 1005.29 1005.87 1006.44 1006.99 1007.53 1008.03 1008.50 1008.91 1009.26 1009.52 1009.70 1009.79 1009.80 1009.74 1009.62 1009.47 1009.31 1009.16 1009.05 1009.00 1009.02 1009.13 1009.31 1009.57 1009.90 1010.28 1010.70 1011.14 1011.59 1012.03 1012.47 1012.89 1013.31
999.36 999.73 1000.18 1000.70 1001.27 1001.86 1002.46 1003.07 1003.67 1004.27 1004.87 1005.46 1006.05 1006.64 1007.22 1007.78 1008.32 1008.80 1009.23 1009.58 1009.85 1010.03 1010.11 1010.12 1010.05 1009.93 1009.79 1009.65 1009.52 1009.45 1009.43 1009.49 1009.63 1009.84 1010.13 1010.46 1010.84 1011.25 1011.67 1012.08 1012.49 1012.89 1013.27 1013.64
999.43 999.86 1000.35 1000.89 1001.47 1002.06 1002.65 1003.25 1003.85 1004.45 1005.05 1005.65 1006.26 1006.86 1007.46 1008.04 1008.58 1009.07 1009.49 1009.84 1010.09 1010.26 1010.33 1010.33 1010.27 1010.17 1010.05 1009.94 1009.86 1009.84 1009.88 1009.98 1010.16 1010.41 1010.71 1011.05 1011.42 1011.80 1012.17 1012.54 1012.89 1013.22 1013.54 1013.86
999.47 999.95 1000.49 1001.06 1001.64 1002.24 1002.83 1003.42 1004.02 1004.62 1005.22 1005.82 1006.44 1007.04 1007.64 1008.21 1008.74 1009.21 1009.62 1009.94 1010.17 1010.32 1010.38 1010.38 1010.34 1010.26 1010.18 1010.12 1010.10 1010.14 1010.23 1010.39 1010.61 1010.88 1011.19 1011.53 1011.87 1012.21 1012.53 1012.83 1013.11 1013.37 1013.62 1013.86
999.58 1000.11 1000.66 1001.24 1001.83 1002.42 1003.00 1003.58 1004.16 1004.74 1005.33 1005.92 1006.52 1007.11 1007.68 1008.22 1008.72 1009.16 1009.53 1009.82 1010.03 1010.16 1010.23 1010.24 1010.21 1010.17 1010.14 1010.14 1010.18 1010.27 1010.42 1010.62 1010.87 1011.15 1011.46 1011.78 1012.09 1012.38 1012.64 1012.88 1013.09 1013.27 1013.45 1013.62
999.82 1000.35 1000.91 1001.47 1002.04 1002.60 1003.15 1003.69 1004.24 1004.79 1005.34 1005.90 1006.45 1007.00 1007.53 1008.03 1008.49 1008.88 1009.22 1009.48 1009.67 1009.79 1009.86 1009.89 1009.89 1009.90 1009.92 1009.97 1010.06 1010.20 1010.39 1010.62 1010.89 1011.17 1011.47 1011.75 1012.02 1012.26 1012.47 1012.65 1012.80 1012.93 1013.05 1013.18
1000.19 1000.69 1001.20 1001.72 1002.24 1002.74 1003.24 1003.74 1004.23 1004.72 1005.22 1005.73 1006.23 1006.72 1007.20 1007.65 1008.05 1008.41 1008.71 1008.95 1009.12 1009.25 1009.33 1009.39 1009.43 1009.48 1009.55 1009.64 1009.78 1009.95 1010.16 1010.40 1010.66 1010.94 1011.20 1011.46 1011.69 1011.89 1012.06 1012.20 1012.31 1012.42 1012.52 1012.63
1000.63 1001.07 1001.51 1001.96 1002.41 1002.84 1003.27 1003.69 1004.12 1004.55 1004.99 1005.44 1005.88 1006.32 1006.74 1007.14 1007.50 1007.82 1008.09 1008.31 1008.49 1008.63 1008.73 1008.82 1008.90 1008.99 1009.09 1009.22 1009.38 1009.57 1009.79 1010.02 1010.26 1010.51 1010.75 1010.97 1011.17 1011.34 1011.49 1011.62 1011.74 1011.85 1011.96 1012.08
1001.06 1001.42 1001.78 1002.15 1002.51 1002.87 1003.22 1003.58 1003.94 1004.32 1004.70 1005.09 1005.48 1005.87 1006.24 1006.60 1006.93 1007.22 1007.48 1007.70 1007.88 1008.03 1008.16 1008.28 1008.39 1008.51 1008.64 1008.79 1008.96 1009.15 1009.35 1009.56 1009.78 1010.00 1010.20 1010.40 1010.58 1010.75 1010.90 1011.05 1011.19 1011.34 1011.50 1011.67
Thickness
5798 5811 5816 5814 5817 5821 5818 5819 5813 5820 5829 5839 5844 5846 5846 5847 5844 5844 5844 5842 5840 5837 5835 5832 5829 5825 5821 5817 5813 5808 5801 5795 5790 5786 5783 5779 5776 5773 5770 5767 5764 5760 5756 5752
5782 5799 5805 5805 5813 5818 5819 5822 5821 5823 5825 5848 5851 5849 5842 5839 5838 5836 5838 5838 5838 5835 5831 5828 5825 5822 5818 5814 5810 5805 5798 5793 5789 5785 5780 5776 5773 5770 5766 5762 5759 5756 5751 5747
5764 5785 5788 5782 5804 5812 5816 5825 5822 5813 5823 5840 5837 5835 5832 5831 5829 5829 5833 5834 5832 5831 5828 5824 5823 5820 5815 5812 5808 5802 5796 5791 5787 5783 5778 5774 5771 5767 5762 5758 5755 5750 5746 5742
5756 5762 5748 5789 5824 5824 5818 5820 5827 5826 5830 5833 5833 5833 5833 5831 5827 5825 5828 5829 5830 5828 5827 5825 5823 5819 5815 5811 5805 5799 5793 5789 5785 5780 5775 5771 5766 5762 5758 5755 5751 5746 5741 5737
5744 5744 5758 5787 5808 5813 5805 5803 5821 5819 5822 5827 5831 5826 5821 5826 5826 5825 5825 5826 5827 5827 5825 5823 5819 5816 5811 5806 5802 5796 5790 5786 5783 5778 5773 5767 5762 5758 5754 5750 5746 5742 5738 5733
5734 5733 5740 5773 5805 5819 5806 5785 5811 5814 5812 5816 5816 5801 5803 5818 5820 5819 5819 5821 5821 5822 5820 5816 5815 5812 5806 5801 5797 5793 5789 5785 5781 5776 5770 5765 5760 5756 5752 5748 5744 5739 5734 5730
5724 5729 5750 5782 5801 5802 5768 5772 5800 5806 5805 5806 5801 5800 5806 5812 5812 5811 5812 5814 5815 5814 5811 5810 5809 5805 5799 5797 5793 5792 5789 5783 5777 5772 5767 5763 5758 5754 5749 5745 5740 5735 5729 5725
5720 5720 5737 5777 5783 5772 5771 5787 5793 5795 5798 5797 5797 5800 5800 5802 5802 5802 5802 5803 5804 5802 5802 5803 5803 5799 5794 5791 5792 5788 5783 5778 5773 5768 5764 5759 5754 5749 5745 5740 5734 5729 5724 5718
5724 5731 5753 5768 5769 5774 5778 5776 5781 5786 5789 5789 5788 5787 5789 5790 5790 5792 5792 5792 5794 5794 5793 5795 5795 5793 5787 5787 5786 5782 5776 5771 5767 5763 5759 5755 5749 5744 5739 5735 5731 5726 5721 5716
5724 5733 5747 5757 5762 5766 5769 5769 5774 5779 5780 5781 5779 5780 5780 5779 5779 5781 5782 5782 5784 5784 5783 5784 5786 5785 5783 5781 5779 5775 5769 5765 5761 5757 5752 5748 5744 5740 5736 5731 5728 5723 5718 5713
5716 5724 5734 5743 5749 5754 5758 5763 5766 5769 5770 5771 5770 5770 5770 5768 5769 5771 5772 5774 5775 5774 5773 5775 5777 5776 5776 5774 5771 5766 5762 5758 5754 5750 5745 5740 5736 5731 5729 5724 5723 5719 5715 5711
5705 5717 5719 5727 5739 5746 5747 5750 5754 5755 5757 5761 5761 5760 5761 5760 5761 5762 5763 5764 5764 5765 5765 5766 5768 5767 5767 5766 5763 5758 5753 5750 5748 5744 5739 5734 5728 5720 5714 5714 5712 5710 5708 5703
5709 5715 5719 5724 5730 5737 5737 5741 5745 5747 5748 5749 5752 5753 5752 5751 5752 5753 5754 5755 5754 5755 5757 5757 5758 5757 5757 5757 5754 5751 5747 5744 5742 5739 5734 5730 5725 5718 5710 5703 5700 5698 5696 5693
5705 5706 5707 5713 5718 5725 5729 5732 5735 5737 5740 5741 5742 5743 5743 5742 5743 5743 5744 5746 5747 5747 5748 5748 5748 5748 5748 5747 5744 5741 5740 5737 5735 5733 5730 5725 5721 5716 5710 5703 5696 5689 5684 5682
5696 5699 5702 5708 5712 5714 5718 5721 5722 5723 5726 5729 5732 5732 5732 5731 5731 5733 5736 5738 5738 5738 5739 5740 5739 5739 5740 5739 5736 5733 5732 5730 5729 5726 5724 5720 5715 5710 5705 5698 5691 5684 5679 5672
5688 5693 5697 5699 5701 5704 5708 5710 5710 5713 5717 5719 5721 5722 5723 5723 5724 5725 5727 5728 5727 5727 5729 5730 5729 5731 5731 5731 5727 5725 5723 5721 5720 5718 5715 5712 5708 5703 5698 5693 5686 5681 5675 5670
5676 5679 5683 5686 5691 5695 5699 5703 5704 5706 5709 5711 5712 5714 5714 5715 5714 5715 5717 5719 5719 5720 5721 5721 5722 5723 5723 5723 5721 5718 5717 5714 5711 5709 5708 5705 5701 5697 5693 5687 5682 5676 5671 5667
5676 5679 5681 5682 5685 5687 5691 5695 5698 5700 5702 5703 5705 5705 5704 5704 5704 5704 5708 5709 5710 5711 5713 5714 5714 5714 5714 5714 5713 5711 5710 5707 5703 5701 5699 5696 5694 5690 5686 5682 5677 5671 5666 5660
5672 5673 5675 5678 5680 5682 5684 5687 5689 5692 5695 5695 5695 5695 5697 5697 5697 5699 5701 5700 5701 5700 5703 5706 5705 5706 5706 5705 5704 5703 5701 5699 5695 5692 5690 5687 5684 5682 5678 5675 5671 5666 5661 5655
5665 5667 5669 5671 5674 5675 5676 5679 5681 5684 5686 5688 5687 5687 5687 5688 5689 5690 5691 5691 5692 5694 5696 5696 5697 5697 5697 5697 5695 5695 5693 5691 5688 5685 5683 5680 5677 5674 5671 5668 5664 5659 5655 5650
5656 5658 5661 5662 5665 5667 5669 5672 5674 5675 5678 5679 5679 5678 5678 5679 5681 5681 5680 5680 5683 5686 5687 5687 5688 5688 5689 5688 5687 5687 5685 5683 5681 5679 5676 5673 5670 5667 5663 5660 5656 5652 5648 5644
5647 5649 5651 5654 5657 5659 5663 5666 5667 5668 5669 5670 5670 5671 5670 5671 5672 5673 5673 5674 5676 5676 5678 5679 5680 5680 5680 5679 5680 5680 5678 5676 5674 5671 5668 5666 5663 5660 5657 5653 5649 5646 5642 5638
5638 5641 5644 5646 5648 5652 5654 5657 5660 5661 5662 5662 5663 5663 5663 5665 5666 5665 5663 5667 5669 5669 5671 5671 5671 5671 5671 5673 5673 5673 5672 5669 5667 5664 5662 5660 5657 5654 5651 5648 5644 5640 5637 5633
5630 5633 5636 5640 5641 5643 5644 5648 5652 5655 5656 5657 5658 5658 5657 5657 5657 5658 5659 5659 5660 5661 5662 5661 5662 5663 5663 5666 5667 5666 5665 5663 5661 5658 5656 5654 5651 5648 5645 5642 5638 5634 5630 5626
5625 5627 5630 5633 5634 5636 5638 5641 5643 5646 5647 5648 5649 5651 5652 5652 5651 5652 5653 5654 5654 5654 5656 5656 5654 5655 5657 5660 5660 5659 5658 5656 5655 5652 5650 5647 5645 5642 5639 5635 5631 5628 5624 5621
5620 5623 5625 5628 5630 5632 5634 5635 5636 5637 5639 5639 5640 5642 5643 5644 5646 5647 5647 5649 5650 5649 5650 5651 5650 5648 5651 5652 5652 5652 5650 5649 5648 5646 5644 5641 5639 5636 5633 5630 5625 5622 5618 5615
5617 5620 5621 5624 5626 5629 5630 5631 5631 5632 5633 5633 5633 5634 5636 5638 5640 5642 5643 5644 5645 5645 5645 5646 5647 5646 5646 5646 5646 5645 5644 5643 5642 5641 5639 5636 5632 5630 5627 5623 5619 5616 5612 5608